Time,TemperatureF,DewpointF,PressureIn,WindDirection,WindDirectionDegrees,WindSpeedMPH,WindSpeedGustMPH,Humidity,HourlyPrecipIn,Conditions,Clouds,dailyrainin,SolarRadiationWatts/m^2,SoftwareType,DateUTC
2013-08-06 00:02:00,60.0,59.0,-100.00,WSW,241,2.0,3.0,95,0.00,,,0.04,0.000000,,2013-08-06 05:02:00,
2013-08-06 00:22:00,59.0,58.0,-100.00,SSE,163,0.0,3.0,95,0.00,,,0.04,0.000000,,2013-08-06 05:22:00,
2013-08-06 00:32:00,59.0,58.0,-100.00,SSE,163,0.0,3.0,95,0.00,,,0.04,0.000000,,2013-08-06 05:32:00,
2013-08-06 00:43:00,59.0,58.0,-100.00,SSE,163,0.0,3.0,95,0.00,,,0.04,0.000000,,2013-08-06 05:43:00,
2013-08-06 00:53:00,59.0,58.0,-100.00,SSE,163,0.0,3.0,95,0.00,,,0.04,0.000000,,2013-08-06 05:53:00,
2013-08-06 01:02:00,59.0,58.0,-100.00,SSE,163,0.0,3.0,95,0.00,,,0.04,0.000000,,2013-08-06 06:02:00,
2013-08-06 01:22:00,59.0,58.0,-100.00,SSE,162,2.0,5.0,97,0.00,,,0.04,0.000000,,2013-08-06 06:22:00,
2013-08-06 01:32:00,59.0,58.0,-100.00,SSE,162,2.0,5.0,97,0.00,,,0.04,0.000000,,2013-08-06 06:32:00,
2013-08-06 01:43:00,59.0,58.0,-100.00,SSE,162,2.0,5.0,97,0.00,,,0.04,0.000000,,2013-08-06 06:43:00,
2013-08-06 01:52:00,59.0,58.0,-100.00,SSE,162,2.0,5.0,97,0.00,,,0.04,0.000000,,2013-08-06 06:52:00,
2013-08-06 02:01:00,59.0,58.0,-100.00,SSE,162,2.0,5.0,97,0.00,,,0.04,0.000000,,2013-08-06 07:01:00,
2013-08-06 02:22:00,56.0,55.0,-100.00,SSW,201,1.0,4.0,97,0.00,,,0.04,0.000000,,2013-08-06 07:22:00,
2013-08-06 02:32:00,56.0,55.0,-100.00,SSW,201,1.0,4.0,97,0.00,,,0.04,0.000000,,2013-08-06 07:32:00,
2013-08-06 02:44:00,56.0,55.0,-100.00,SSW,201,1.0,4.0,97,0.00,,,0.04,0.000000,,2013-08-06 07:44:00,
2013-08-06 02:53:00,56.0,55.0,-100.00,SSW,201,1.0,4.0,97,0.00,,,0.04,0.000000,,2013-08-06 07:53:00,
2013-08-06 03:02:00,56.0,55.0,-100.00,SSW,201,1.0,4.0,97,0.00,,,0.04,0.000000,,2013-08-06 08:02:00,
2013-08-06 03:22:00,53.0,52.0,-100.00,SSE,164,2.0,4.0,98,0.00,,,0.04,0.000000,,2013-08-06 08:22:00,
2013-08-06 03:33:00,53.0,52.0,-100.00,SSE,164,2.0,4.0,98,0.00,,,0.04,0.000000,,2013-08-06 08:33:00,
2013-08-06 03:43:00,53.0,52.0,-100.00,SSE,164,2.0,4.0,98,0.00,,,0.04,0.000000,,2013-08-06 08:43:00,
2013-08-06 03:52:00,53.0,52.0,-100.00,SSE,164,2.0,4.0,98,0.00,,,0.04,0.000000,,2013-08-06 08:52:00,
2013-08-06 04:01:00,53.0,52.0,-100.00,SSE,164,2.0,4.0,98,0.00,,,0.04,0.000000,,2013-08-06 09:01:00,
2013-08-06 04:22:00,52.0,51.0,-100.00,SW,232,1.0,4.0,98,0.00,,,0.02,0.000000,,2013-08-06 09:22:00,
2013-08-06 04:33:00,52.0,51.0,-100.00,SW,232,1.0,4.0,98,0.00,,,0.02,0.000000,,2013-08-06 09:33:00,
2013-08-06 04:43:00,52.0,51.0,-100.00,SW,232,1.0,4.0,98,0.00,,,0.02,0.000000,,2013-08-06 09:43:00,
2013-08-06 04:52:00,52.0,51.0,-100.00,SW,232,1.0,4.0,98,0.00,,,0.02,0.000000,,2013-08-06 09:52:00,
2013-08-06 05:01:00,52.0,51.0,-100.00,SW,232,1.0,4.0,98,0.00,,,0.02,0.000000,,2013-08-06 10:01:00,
2013-08-06 05:22:00,54.0,54.0,-100.00,SSE,160,4.0,5.0,99,0.00,,,0.01,0.000000,,2013-08-06 10:22:00,
2013-08-06 05:32:00,54.0,54.0,-100.00,SSE,160,4.0,5.0,99,0.00,,,0.01,0.000000,,2013-08-06 10:32:00,
2013-08-06 05:43:00,54.0,54.0,-100.00,SSE,160,4.0,5.0,99,0.00,,,0.01,0.000000,,2013-08-06 10:43:00,
2013-08-06 05:53:00,54.0,54.0,-100.00,SSE,160,4.0,5.0,99,0.00,,,0.01,0.000000,,2013-08-06 10:53:00,
2013-08-06 06:02:00,54.0,54.0,-100.00,SSE,160,4.0,5.0,99,0.00,,,0.01,0.000000,,2013-08-06 11:02:00,
2013-08-06 06:22:00,54.0,54.0,-100.00,South,169,2.0,6.0,99,0.00,,,0.00,1.000000,,2013-08-06 11:22:00,
2013-08-06 06:32:00,54.0,54.0,-100.00,South,169,2.0,6.0,99,0.00,,,0.00,1.000000,,2013-08-06 11:32:00,
2013-08-06 06:43:00,54.0,54.0,-100.00,South,169,2.0,6.0,99,0.00,,,0.00,1.000000,,2013-08-06 11:43:00,
2013-08-06 06:53:00,54.0,54.0,-100.00,South,169,2.0,6.0,99,0.00,,,0.00,1.000000,,2013-08-06 11:53:00,
2013-08-06 07:02:00,54.0,54.0,-100.00,South,169,2.0,6.0,99,0.00,,,0.00,1.000000,,2013-08-06 12:02:00,
2013-08-06 07:22:00,55.0,55.0,-100.00,SW,217,4.0,6.0,99,0.00,,,0.00,33.000000,,2013-08-06 12:22:00,
2013-08-06 07:32:00,55.0,55.0,-100.00,SW,217,4.0,6.0,99,0.00,,,0.00,33.000000,,2013-08-06 12:32:00,
2013-08-06 07:43:00,55.0,55.0,-100.00,SW,217,4.0,6.0,99,0.00,,,0.00,33.000000,,2013-08-06 12:43:00,
2013-08-06 07:52:00,55.0,55.0,-100.00,SW,217,4.0,6.0,99,0.00,,,0.00,33.000000,,2013-08-06 12:52:00,
2013-08-06 08:02:00,55.0,55.0,-100.00,SW,217,4.0,6.0,99,0.00,,,0.00,33.000000,,2013-08-06 13:02:00,
2013-08-06 08:22:00,56.0,56.0,-100.00,SW,236,4.0,8.0,99,0.00,,,0.00,100.000000,,2013-08-06 13:22:00,
2013-08-06 08:32:00,56.0,56.0,-100.00,SW,236,4.0,8.0,99,0.00,,,0.00,100.000000,,2013-08-06 13:32:00,
2013-08-06 08:42:00,56.0,56.0,-100.00,SW,236,4.0,8.0,99,0.00,,,0.00,100.000000,,2013-08-06 13:42:00,
2013-08-06 08:53:00,56.0,56.0,-100.00,SW,236,4.0,8.0,99,0.00,,,0.00,100.000000,,2013-08-06 13:53:00,
2013-08-06 09:01:00,56.0,56.0,-100.00,SW,236,4.0,8.0,99,0.00,,,0.00,100.000000,,2013-08-06 14:01:00,
2013-08-06 09:22:00,61.0,60.0,-100.00,SSW,210,5.0,8.0,97,0.00,,,0.00,345.000000,,2013-08-06 14:22:00,
2013-08-06 09:32:00,61.0,60.0,-100.00,SSW,210,5.0,8.0,97,0.00,,,0.00,345.000000,,2013-08-06 14:32:00,
2013-08-06 09:42:00,61.0,60.0,-100.00,SSW,210,5.0,8.0,97,0.00,,,0.00,345.000000,,2013-08-06 14:42:00,
2013-08-06 09:53:00,61.0,60.0,-100.00,SSW,210,5.0,8.0,97,0.00,,,0.00,345.000000,,2013-08-06 14:53:00,
2013-08-06 10:02:00,61.0,60.0,-100.00,SSW,210,5.0,8.0,97,0.00,,,0.00,345.000000,,2013-08-06 15:02:00,
2013-08-06 10:23:00,67.0,60.0,-100.00,SW,235,7.0,10.0,79,0.00,,,0.00,562.000000,,2013-08-06 15:23:00,
2013-08-06 10:33:00,67.0,60.0,-100.00,SW,235,7.0,10.0,79,0.00,,,0.00,562.000000,,2013-08-06 15:33:00,
2013-08-06 10:44:00,67.0,60.0,-100.00,SW,235,7.0,10.0,79,0.00,,,0.00,562.000000,,2013-08-06 15:44:00,
2013-08-06 10:52:00,67.0,60.0,-100.00,SW,235,7.0,10.0,79,0.00,,,0.00,562.000000,,2013-08-06 15:52:00,
2013-08-06 11:02:00,67.0,60.0,-100.00,SW,235,7.0,10.0,79,0.00,,,0.00,562.000000,,2013-08-06 16:02:00,
2013-08-06 11:22:00,70.0,58.0,-100.00,WSW,240,7.0,13.0,65,0.00,,,0.00,553.000000,,2013-08-06 16:22:00,
2013-08-06 11:32:00,70.0,58.0,-100.00,WSW,240,7.0,13.0,65,0.00,,,0.00,553.000000,,2013-08-06 16:32:00,
2013-08-06 11:43:00,70.0,58.0,-100.00,WSW,240,7.0,13.0,65,0.00,,,0.00,553.000000,,2013-08-06 16:43:00,
2013-08-06 11:52:00,70.0,58.0,-100.00,WSW,240,7.0,13.0,65,0.00,,,0.00,553.000000,,2013-08-06 16:52:00,
2013-08-06 12:02:00,70.0,58.0,-100.00,WSW,240,7.0,13.0,65,0.00,,,0.00,553.000000,,2013-08-06 17:02:00,
2013-08-06 12:22:00,69.0,58.0,-100.00,SSW,204,9.0,13.0,69,0.00,,,0.00,418.000000,,2013-08-06 17:22:00,
2013-08-06 12:32:00,69.0,58.0,-100.00,SSW,204,9.0,13.0,69,0.00,,,0.00,418.000000,,2013-08-06 17:32:00,
2013-08-06 12:44:00,69.0,58.0,-100.00,SSW,204,9.0,13.0,69,0.00,,,0.00,418.000000,,2013-08-06 17:44:00,
2013-08-06 12:52:00,69.0,58.0,-100.00,SSW,204,9.0,13.0,69,0.00,,,0.00,418.000000,,2013-08-06 17:52:00,
2013-08-06 13:01:00,69.0,58.0,-100.00,SSW,204,9.0,13.0,69,0.00,,,0.00,418.000000,,2013-08-06 18:01:00,
2013-08-06 13:22:00,65.0,58.0,-100.00,NW,310,5.0,11.0,79,0.00,,,0.00,176.000000,,2013-08-06 18:22:00,
2013-08-06 13:32:00,65.0,58.0,-100.00,NW,310,5.0,11.0,79,0.00,,,0.00,176.000000,,2013-08-06 18:32:00,
2013-08-06 13:44:00,65.0,58.0,-100.00,NW,310,5.0,11.0,79,0.00,,,0.00,176.000000,,2013-08-06 18:44:00,
2013-08-06 13:52:00,65.0,58.0,-100.00,NW,310,5.0,11.0,79,0.00,,,0.00,176.000000,,2013-08-06 18:52:00,
2013-08-06 14:01:00,65.0,58.0,-100.00,NW,310,5.0,11.0,79,0.00,,,0.00,176.000000,,2013-08-06 19:01:00,
2013-08-06 14:22:00,65.0,57.0,-100.00,NW,323,7.0,10.0,76,0.00,,,0.00,128.000000,,2013-08-06 19:22:00,
2013-08-06 14:32:00,65.0,57.0,-100.00,NW,323,7.0,10.0,76,0.00,,,0.00,128.000000,,2013-08-06 19:32:00,
2013-08-06 14:42:00,65.0,57.0,-100.00,NW,323,7.0,10.0,76,0.00,,,0.00,128.000000,,2013-08-06 19:42:00,
2013-08-06 14:52:00,65.0,57.0,-100.00,NW,323,7.0,10.0,76,0.00,,,0.00,128.000000,,2013-08-06 19:52:00,
2013-08-06 15:01:00,65.0,57.0,-100.00,NW,323,7.0,10.0,76,0.00,,,0.00,128.000000,,2013-08-06 20:01:00,
2013-08-06 15:22:00,64.0,56.0,-100.00,NNE,25,5.0,10.0,76,0.00,,,-99.99,145.000000,,2013-08-06 20:22:00,
2013-08-06 15:32:00,64.0,56.0,-100.00,NNE,25,5.0,10.0,76,0.00,,,-99.99,145.000000,,2013-08-06 20:32:00,
2013-08-06 15:44:00,64.0,56.0,-100.00,NNE,25,5.0,10.0,76,0.00,,,-99.99,145.000000,,2013-08-06 20:44:00,
2013-08-06 15:52:00,64.0,56.0,-100.00,NNE,25,5.0,10.0,76,0.00,,,-99.99,145.000000,,2013-08-06 20:52:00,
2013-08-06 16:01:00,64.0,56.0,-100.00,NNE,25,5.0,10.0,76,0.00,,,-99.99,145.000000,,2013-08-06 21:01:00,
2013-08-06 16:22:00,63.0,59.0,-100.00,NNE,33,4.0,6.0,86,0.01,,,0.01,134.000000,,2013-08-06 21:22:00,
2013-08-06 16:32:00,63.0,59.0,-100.00,NNE,33,4.0,6.0,86,0.01,,,0.01,134.000000,,2013-08-06 21:32:00,
2013-08-06 16:43:00,63.0,59.0,-100.00,NNE,33,4.0,6.0,86,0.01,,,0.01,134.000000,,2013-08-06 21:43:00,
2013-08-06 16:52:00,63.0,59.0,-100.00,NNE,33,4.0,6.0,86,0.01,,,0.01,134.000000,,2013-08-06 21:52:00,
2013-08-06 17:01:00,63.0,59.0,-100.00,NNE,33,4.0,6.0,86,0.01,,,0.01,134.000000,,2013-08-06 22:01:00,
2013-08-06 17:22:00,63.0,58.0,-100.00,ENE,58,3.0,7.0,83,0.00,,,0.01,187.000000,,2013-08-06 22:22:00,
2013-08-06 17:32:00,63.0,58.0,-100.00,ENE,58,3.0,7.0,83,0.00,,,0.01,187.000000,,2013-08-06 22:32:00,
2013-08-06 17:43:00,63.0,58.0,-100.00,ENE,58,3.0,7.0,83,0.00,,,0.01,187.000000,,2013-08-06 22:43:00,
2013-08-06 17:53:00,63.0,58.0,-100.00,ENE,58,3.0,7.0,83,0.00,,,0.01,187.000000,,2013-08-06 22:53:00,
2013-08-06 18:01:00,63.0,58.0,-100.00,ENE,58,3.0,7.0,83,0.00,,,0.01,187.000000,,2013-08-06 23:01:00,
2013-08-06 18:22:00,66.0,59.0,-100.00,NE,35,3.0,5.0,79,0.00,,,0.01,261.000000,,2013-08-06 23:22:00,
2013-08-06 18:33:00,66.0,59.0,-100.00,NE,35,3.0,5.0,79,0.00,,,0.01,261.000000,,2013-08-06 23:33:00,
2013-08-06 18:43:00,66.0,59.0,-100.00,NE,35,3.0,5.0,79,0.00,,,0.01,261.000000,,2013-08-06 23:43:00,
2013-08-06 18:52:00,66.0,59.0,-100.00,NE,35,3.0,5.0,79,0.00,,,0.01,261.000000,,2013-08-06 23:52:00,
2013-08-06 19:01:00,66.0,59.0,-100.00,NE,35,3.0,5.0,79,0.00,,,0.01,261.000000,,2013-08-07 00:01:00,
2013-08-06 19:22:00,64.0,58.0,-100.00,NE,51,4.0,6.0,82,0.00,,,0.01,94.000000,,2013-08-07 00:22:00,
2013-08-06 19:32:00,64.0,58.0,-100.00,NE,51,4.0,6.0,82,0.00,,,0.01,94.000000,,2013-08-07 00:32:00,
2013-08-06 19:43:00,64.0,58.0,-100.00,NE,51,4.0,6.0,82,0.00,,,0.01,94.000000,,2013-08-07 00:43:00,
2013-08-06 19:52:00,64.0,58.0,-100.00,NE,51,4.0,6.0,82,0.00,,,0.01,94.000000,,2013-08-07 00:52:00,
2013-08-06 20:01:00,64.0,58.0,-100.00,NE,51,4.0,6.0,82,0.00,,,0.01,94.000000,,2013-08-07 01:01:00,
2013-08-06 20:22:00,62.0,57.0,-100.00,NNE,20,3.0,5.0,85,0.00,,,0.01,45.000000,,2013-08-07 01:22:00,
2013-08-06 20:32:00,62.0,57.0,-100.00,NNE,20,3.0,5.0,85,0.00,,,0.01,45.000000,,2013-08-07 01:32:00,
2013-08-06 20:43:00,62.0,57.0,-100.00,NNE,20,3.0,5.0,85,0.00,,,0.01,45.000000,,2013-08-07 01:43:00,
2013-08-06 20:52:00,62.0,57.0,-100.00,NNE,20,3.0,5.0,85,0.00,,,0.01,45.000000,,2013-08-07 01:52:00,
2013-08-06 21:02:00,62.0,57.0,-100.00,NNE,20,3.0,5.0,85,0.00,,,0.01,45.000000,,2013-08-07 02:02:00,
2013-08-06 21:22:00,60.0,57.0,-100.00,NNW,345,0.0,3.0,91,0.00,,,0.01,3.000000,,2013-08-07 02:22:00,
2013-08-06 21:33:00,60.0,57.0,-100.00,NNW,345,0.0,3.0,91,0.00,,,0.01,3.000000,,2013-08-07 02:33:00,
2013-08-06 21:43:00,60.0,57.0,-100.00,NNW,345,0.0,3.0,91,0.00,,,0.01,3.000000,,2013-08-07 02:43:00,
2013-08-06 21:53:00,60.0,57.0,-100.00,NNW,345,0.0,3.0,91,0.00,,,0.01,3.000000,,2013-08-07 02:53:00,
2013-08-06 22:01:00,60.0,57.0,-100.00,NNW,345,0.0,3.0,91,0.00,,,0.01,3.000000,,2013-08-07 03:01:00,
2013-08-06 22:23:00,60.0,58.0,-100.00,West,276,2.0,3.0,93,0.00,,,0.01,0.000000,,2013-08-07 03:23:00,
2013-08-06 22:32:00,60.0,58.0,-100.00,West,276,2.0,3.0,93,0.00,,,0.01,0.000000,,2013-08-07 03:32:00,
2013-08-06 22:43:00,60.0,58.0,-100.00,West,276,2.0,3.0,93,0.00,,,0.01,0.000000,,2013-08-07 03:43:00,
2013-08-06 22:52:00,60.0,58.0,-100.00,West,276,2.0,3.0,93,0.00,,,0.01,0.000000,,2013-08-07 03:52:00,
2013-08-06 23:01:00,60.0,58.0,-100.00,West,276,2.0,3.0,93,0.00,,,0.01,0.000000,,2013-08-07 04:01:00,
2013-08-06 23:22:00,60.0,58.0,-100.00,NNW,335,7.0,11.0,92,0.00,,,0.01,0.000000,,2013-08-07 04:22:00,
2013-08-06 23:33:00,60.0,58.0,-100.00,NNW,335,7.0,11.0,92,0.00,,,0.01,0.000000,,2013-08-07 04:33:00,
2013-08-06 23:43:00,60.0,58.0,-100.00,NNW,335,7.0,11.0,92,0.00,,,0.01,0.000000,,2013-08-07 04:43:00,
2013-08-06 23:52:00,60.0,58.0,-100.00,NNW,335,7.0,11.0,92,0.00,,,0.01,0.000000,,2013-08-07 04:52:00,